Iowa Falls, IA

3:43 PM CDT on August 18, 2017 (GMT -0500)
Iowa Falls Municipal

Weather History for KIFA - February, 2014

Change the Weather History Date:

Sunday, February 16, 2014

  Actual Average Record
Temperature  
Mean Temperature 18 °F -  
Max Temperature 21 °F 30 °F 51 °F (2017)
Min Temperature 15 °F 11 °F -20 °F (1958)
Degree Days  
Heating Degree Days 47    
Moisture  
Dew Point 14 °F    
Average Humidity 80    
Maximum Humidity 87    
Minimum Humidity 69    
Precipitation  
Precipitation 0.00 in - - ()
Sea Level Pressure  
Sea Level Pressure 30.11 in    
Wind  
Wind Speed 12 mph (ENE)    
Max Wind Speed 17 mph    
Max Gust Speed 26 mph    
Visibility 7 miles    
Events Snow    
Averages and records for this station are not official NWS values.
T = Trace of Precipitation, MM = Missing Value Source: NWS Daily Summary

Daily Weather History Graph

Daily Weather History Graph

Search for Another Location

Airport or City:

Trip Planner

Search our weather history database for the weather conditions in past years. The results will help you decide how hot, cold, wet, or windy it might be!

Date:

Astronomy

Feb. 16, 2014 Rise Set
Actual Time 7:08 AM CST 5:46 PM CST
Civil Twilight 6:39 AM CST 6:15 PM CST
Nautical Twilight 6:06 AM CST 6:48 PM CST
Astronomical Twilight 5:34 AM CST 7:20 PM CST
Moon 7:47 PM CST (2/16) 7:35 AM CST (2/16)
Length of Visible Light 11h 35m
Length of Day
10h 38m
Full, 97% of the Moon is Illuminated
Feb 16
Full
Feb 22
Last Quarter
Mar 1
New
Mar 8
First Quarter
Mar 16
Full

Hourly Weather History & Observations

Time (CST) Temp. Windchill Dew Point Humidity Pressure Visibility Wind Dir Wind Speed Gust Speed Precip Events Conditions
12:15 AM 21.0 °F 8.1 °F 17.6 °F 87% 30.01 in 7.0 mi NNW 13.8 mph - N/A   Overcast
12:35 AM 20.8 °F 6.8 °F 17.2 °F 86% 30.01 in 7.0 mi NNW 16.1 mph 21.9 mph N/A   Overcast
12:55 AM 20.7 °F 6.6 °F 17.2 °F 87% 30.01 in 7.0 mi NNW 16.1 mph - N/A   Overcast
1:15 AM 20.7 °F 7.6 °F 16.7 °F 85% 30.03 in 7.0 mi NNW 13.8 mph - N/A   Overcast
1:35 AM 20.7 °F 8.2 °F 16.7 °F 85% 30.01 in 7.0 mi NNW 12.7 mph - N/A   Overcast
1:55 AM 20.5 °F 6.9 °F 16.3 °F 84% 30.01 in 7.0 mi NNW 15.0 mph - N/A   Overcast
2:15 AM 20.3 °F 7.2 °F 16.3 °F 85% 30.04 in 7.0 mi NW 13.8 mph - N/A   Overcast
2:35 AM 20.1 °F 6.4 °F 16.5 °F 86% 30.07 in 7.0 mi NW 15.0 mph - N/A   Overcast
2:55 AM 19.4 °F 4.5 °F 15.8 °F 86% 30.09 in 7.0 mi NW 17.3 mph - N/A   Overcast
3:15 AM 19.0 °F 5.6 °F 14.9 °F 84% 30.08 in 10.0 mi NW 13.8 mph - N/A   Overcast
3:35 AM 18.5 °F 3.8 °F 14.7 °F 85% 30.09 in 10.0 mi NW 16.1 mph - N/A   Overcast
3:55 AM 17.6 °F 3.2 °F 13.8 °F 85% 30.08 in 7.0 mi NW 15.0 mph - N/A   Overcast
4:15 AM 16.7 °F 1.5 °F 13.1 °F 86% 30.07 in 7.0 mi NW 16.1 mph - N/A   Overcast
4:35 AM 16.5 °F 3.0 °F 12.9 °F 86% 30.08 in 7.0 mi NW 12.7 mph - N/A   Overcast
4:55 AM 16.2 °F 3.2 °F 12.6 °F 86% 30.09 in 7.0 mi NW 11.5 mph - N/A   Overcast
5:15 AM 16.3 °F 4.1 °F 12.2 °F 84% 30.12 in 7.0 mi WNW 10.4 mph - N/A   Overcast
5:35 AM 16.3 °F 4.1 °F 12.6 °F 85% 30.12 in 7.0 mi WNW 10.4 mph - N/A   Overcast
5:55 AM 16.3 °F 4.1 °F 12.2 °F 84% 30.13 in 10.0 mi WNW 10.4 mph - N/A   Overcast
6:15 AM 16.0 °F 3.6 °F 12.0 °F 84% 30.13 in 10.0 mi NW 10.4 mph - N/A   Overcast
6:35 AM 15.8 °F 5.1 °F 12.0 °F 85% 30.14 in 7.0 mi WNW 8.1 mph - N/A   Overcast
6:55 AM 15.8 °F 3.4 °F 11.8 °F 84% 30.14 in 10.0 mi NW 10.4 mph - N/A   Overcast
7:15 AM 15.6 °F 4.0 °F 11.7 °F 84% 30.16 in 7.0 mi WNW 9.2 mph - N/A Snow Light Snow
7:35 AM 15.3 °F 3.5 °F 11.5 °F 85% 30.18 in 7.0 mi WNW 9.2 mph - N/A   Overcast
7:55 AM 15.6 °F 5.9 °F 11.5 °F 84% 30.19 in 7.0 mi NW 6.9 mph - N/A Snow Light Snow
8:15 AM 15.4 °F 3.8 °F 11.3 °F 84% 30.19 in 5.0 mi NNW 9.2 mph - N/A Snow Light Snow
8:35 AM 15.8 °F 4.2 °F 11.3 °F 82% 30.21 in 7.0 mi NW 9.2 mph - N/A Snow Light Snow
8:55 AM 15.8 °F 5.1 °F 11.5 °F 83% 30.20 in 5.0 mi NNW 8.1 mph - N/A Snow Light Snow
9:15 AM 15.8 °F 4.2 °F 11.1 °F 82% 30.20 in 7.0 mi NNW 9.2 mph - N/A Snow Light Snow
9:35 AM 16.5 °F 6.9 °F 10.8 °F 78% 30.20 in 10.0 mi North 6.9 mph - N/A Snow Light Snow
9:55 AM 16.7 °F 8.3 °F 10.8 °F 77% 30.20 in 10.0 mi North 5.8 mph - N/A   Clear
10:15 AM 17.6 °F 10.7 °F 11.1 °F 76% 30.21 in 7.0 mi North 4.6 mph - N/A   Clear
10:35 AM 18.3 °F 10.2 °F 11.1 °F 73% 30.20 in 10.0 mi NNE 5.8 mph - N/A   Clear
10:55 AM 18.7 °F 7.8 °F 11.5 °F 74% 30.19 in 7.0 mi NE 9.2 mph - N/A   Clear
11:15 AM 18.7 °F 7.8 °F 12.0 °F 75% 30.19 in 7.0 mi NE 9.2 mph - N/A   Clear
11:35 AM 19.4 °F 7.9 °F 11.8 °F 72% 30.16 in 7.0 mi NE 10.4 mph - N/A   Clear
11:55 AM 18.7 °F 9.5 °F 11.3 °F 73% 30.17 in 7.0 mi ENE 6.9 mph - N/A   Clear
12:15 PM 19.6 °F 11.7 °F 11.3 °F 70% 30.18 in 7.0 mi ENE 5.8 mph - N/A   Clear
12:35 PM 20.1 °F 10.3 °F 11.5 °F 69% 30.17 in 7.0 mi East 8.1 mph - N/A   Clear
12:55 PM 19.9 °F 12.1 °F 11.7 °F 70% 30.16 in 7.0 mi East 5.8 mph - N/A   Clear
1:15 PM 20.5 °F 10.8 °F 12.0 °F 70% 30.15 in 7.0 mi ESE 8.1 mph - N/A   Clear
1:35 PM 19.6 °F 10.6 °F 11.8 °F 72% 30.15 in 7.0 mi SE 6.9 mph - N/A   Clear
1:55 PM 19.4 °F 9.5 °F 11.5 °F 71% 30.15 in 7.0 mi SE 8.1 mph - N/A   Scattered Clouds
2:15 PM 19.9 °F 9.3 °F 12.6 °F 73% 30.14 in 7.0 mi ESE 9.2 mph - N/A   Mostly Cloudy
2:35 PM 19.4 °F 7.9 °F 12.0 °F 73% 30.14 in 7.0 mi SE 10.4 mph - N/A   Scattered Clouds
2:55 PM 19.2 °F 9.3 °F 12.2 °F 74% 30.14 in 7.0 mi SE 8.1 mph - N/A   Mostly Cloudy
3:15 PM 19.2 °F 8.4 °F 12.0 °F 74% 30.13 in 7.0 mi SE 9.2 mph - N/A   Overcast
3:35 PM 19.2 °F 7.7 °F 12.9 °F 76% 30.12 in 7.0 mi SE 10.4 mph - N/A   Overcast
3:55 PM 19.2 °F 6.4 °F 13.3 °F 78% 30.10 in 7.0 mi ESE 12.7 mph - N/A   Overcast
4:15 PM 19.4 °F 6.6 °F 13.5 °F 78% 30.10 in 5.0 mi ESE 12.7 mph - N/A   Haze
4:35 PM 19.8 °F 7.7 °F 13.6 °F 77% 30.11 in 7.0 mi SE 11.5 mph - N/A   Overcast
4:55 PM 19.9 °F 6.2 °F 13.8 °F 77% 30.11 in 7.0 mi SE 15.0 mph - N/A   Overcast
5:15 PM 20.1 °F 8.1 °F 14.0 °F 77% 30.11 in 7.0 mi SE 11.5 mph - N/A   Overcast
5:35 PM 19.9 °F 7.3 °F 14.5 °F 80% 30.10 in 7.0 mi ESE 12.7 mph - N/A   Overcast
5:55 PM 19.4 °F 6.0 °F 14.5 °F 81% 30.09 in 7.0 mi ESE 13.8 mph - N/A   Overcast
6:15 PM 19.4 °F 6.0 °F 14.7 °F 82% 30.09 in 7.0 mi ESE 13.8 mph - N/A   Overcast
6:35 PM 19.4 °F 6.0 °F 14.7 °F 82% 30.09 in 7.0 mi ESE 13.8 mph - N/A   Overcast
6:55 PM 19.4 °F 6.0 °F 14.9 °F 83% 30.09 in 7.0 mi ESE 13.8 mph - N/A   Overcast
7:15 PM 19.6 °F 5.7 °F 15.1 °F 83% 30.09 in 7.0 mi ESE 15.0 mph - N/A   Overcast
7:35 PM 19.9 °F 5.2 °F 15.3 °F 82% 30.06 in 7.0 mi ESE 17.3 mph - N/A   Mostly Cloudy
7:55 PM 20.1 °F 6.4 °F 15.4 °F 82% 30.06 in 7.0 mi ESE 15.0 mph - N/A   Mostly Cloudy
8:15 PM 20.3 °F 5.7 °F 15.6 °F 82% 30.06 in 7.0 mi ESE 17.3 mph - N/A   Scattered Clouds
8:35 PM 20.8 °F 7.3 °F 15.8 °F 81% 30.05 in 7.0 mi SE 15.0 mph - N/A   Scattered Clouds
8:55 PM 21.2 °F 7.3 °F 16.2 °F 81% 30.04 in 7.0 mi SE 16.1 mph - N/A   Clear
9:15 PM 21.2 °F 6.8 °F 16.3 °F 82% 30.03 in 7.0 mi SE 17.3 mph - N/A   Clear
9:35 PM 21.0 °F 7.1 °F 16.3 °F 82% 30.04 in 7.0 mi ESE 16.1 mph 21.9 mph N/A   Clear
9:55 PM 21.2 °F 7.8 °F 16.3 °F 82% 30.04 in 7.0 mi SE 15.0 mph - N/A   Clear
10:15 PM 21.2 °F 7.8 °F 16.3 °F 82% 30.04 in 7.0 mi SE 15.0 mph - N/A   Scattered Clouds
10:35 PM 21.2 °F 7.3 °F 16.3 °F 82% 30.04 in 7.0 mi SE 16.1 mph - N/A   Scattered Clouds
10:55 PM 21.2 °F 8.3 °F 16.3 °F 82% 30.05 in 7.0 mi SE 13.8 mph - N/A   Scattered Clouds
11:15 PM 21.0 °F 7.1 °F 16.2 °F 81% 30.03 in 7.0 mi SE 16.1 mph - N/A   Clear
11:35 PM 21.0 °F 7.6 °F 16.2 °F 81% 30.02 in 7.0 mi SE 15.0 mph - N/A   Scattered Clouds
11:55 PM 21.2 °F 7.3 °F 16.3 °F 82% 30.01 in 7.0 mi SE 16.1 mph 26.5 mph N/A   Mostly Cloudy